Погода в Моруэлл

Австралия     38°14′17″S   146°24′12″E
темп.,
°C
ветер,
м/с
пор.,
м/с
влажн.,
%
обл.,
%
осадки,
мм/ч
давл.,
гПа
погр.,
м
26 февраля, пт
пт2623:00+13зюз298483 0.6 1011937
02:00+10з2108064 0.0 1011429
05:00+7з159632 0.0 1011140
08:00+11з278278 0.1 1013337
11:00+16зюз365277 0.1 10141479
14:00+19з3542100 0.0 10131573
17:00+20ююз334151 0.0 10121295
20:00+14ююз25670 0.0 1014184
27 февраля, сб
сб2723:00+8юв11972 0.0 101522
02:00+8юв129914 0.0 101435
05:00+8в129935 0.0 101350
08:00+10в1491100 0.0 1014182
11:00+17всв3756100 0.0 1014730
14:00+22св1140100 0.0 10121026
17:00+23св1139100 0.0 10111465
20:00+17всв3766100 0.0 1013481
28 февраля, вс
вс2823:00+12вюв119788 0.0 101422
02:00+11в119912 0.0 101322
05:00+10вюв119914 0.0 101222
08:00+13юв11888 0.0 101335
11:00+25св113533 0.0 1012503
14:00+30з382067 0.0 10113054
17:00+29в052564 0.0 10082371
20:00+20в255989 0.0 1009323
1 марта, пн
пн123:00+14ю118246 0.0 101123
02:00+13з129144 0.0 100978
05:00+14з269465 0.0 1008375
08:00+14з388766 0.0 1010595
11:00+17з376977 0.1 10101035
14:00+21з584672 0.1 10091503
17:00+20зюз5114736 0.1 10091778
20:00+14зюз4117265 0.1 10111267
2 марта, вт
вт223:00+11юз3106267 0.1 10151203
02:00+10зюз286344 0.0 10151101
05:00+7з278029 0.1 1015344
08:00+10з2573100 0.1 1017356
11:00+15юз364689 0.1 10181565
14:00+17зюз363758 0.0 10171805
17:00+16юз474538 0.0 10161480
20:00+11юз27655 0.0 10181042